Location: Wanzleben
(52.0609°N, 11.4408°E)
Time: 03:51:14
(UTC+00:00)

Abrixas rocket - Pass Details

Date: 18 September 2020
Orbit: 329 x 336 km, 48.4° (Epoch: 22 October)

Event Time Altitude Azimuth Distance (km) Brightness Sun altitude
Rises 18:01:04 0° 238° (WSW) 2,094 6.6 -6.9°
Reaches altitude 10° 18:03:12 10° 226° (SW) 1,257 5.2 -7.2°
Maximum altitude 18:05:40 28° 165° (SSE) 665 3.0 -7.6°
Enters shadow 18:07:53 12° 106° (ESE) 1,172 3.8 -7.9°
